sat.trackr.live / text

‹ back to catalog

STARLINK-35296

NORAD 65801 · 2025-218L

PAYLOAD ACTIVE UNKNOWN

§ Identity

Operator
Country
US
Launch date
2025-09-26
Launch site
AFWTR
Launch vehicle
Mass (kg)
RCS (m²)

Purposes: comms

External: N2YO · Heavens-Above · Gunter

§ Orbital elements

Epoch: 2026-09-20T12:47:10.341312Z

Period
93.91 min
Inclination
97.2840°
Eccentricity
0.0001761
Mean motion
15.33451045 rev/d
Perigee alt
464.3 km
Apogee alt
466.7 km
Semi-major
6,843.7 km
B*
2.8401e-4
RAAN
120.8366°
Arg perigee
94.7950°
Mean anomaly
265.3494°
Rev number
5,433

§ Raw data

STARLINK-352961 65801U 25218L   26263.53275858  .00009107  00000+0  28401-3 0  99942 65801  97.2840 120.8366 0001761  94.7950 265.3494 15.33451045 54336

JSON: /api/v1/satellites/65801 · /tle

For live sub-satellite position, see the globe view (requires WebGL).

§ Visibility from observer

Set your observer location to see the next 7 days of passes ≥ 10°. The values pass through the URL so the page stays shareable.

No JS? Fill the form by hand. The geolocation button needs JavaScript.